Back to catalog

FALCONSAT-6

AliveScienceSSO
NORAD 43815·PAYLOAD·🇺🇸 United States

Launched Dec 3, 2018 from Vandenberg Space Force Base

Loading…

Next Passes (next 24 hours)

TLE

FreshSource: Space-Track

Epoch: Sep 13, 2026, 23:23 UTC

1 43815U 18099BK  26256.97438053  .00002846  00000-0  10723-3 0  9994
2 43815  97.3734 332.0338 0014843 354.4080 178.4742 15.27814766427285

Track FALCONSAT-6 in real time with AllMySat

Download on the App Store